TimeEDT,TemperatureF,Dew PointF,Humidity,Sea Level PressureIn,VisibilityMPH,Wind Direction,Wind SpeedMPH,Gust SpeedMPH,PrecipitationIn,Events,Conditions,WindDirDegrees,DateUTC
12:15 AM,66.2,64.4,94,30.05,8.0,SW,3.5,-,N/A,,Partly Cloudy,220,2013-10-05 04:15:00
12:35 AM,66.2,64.4,94,30.06,10.0,Calm,Calm,-,N/A,,Partly Cloudy,0,2013-10-05 04:35:00
12:55 AM,66.2,64.4,94,30.06,9.0,Calm,Calm,-,N/A,,Clear,0,2013-10-05 04:55:00
1:15 AM,66.2,64.4,94,30.05,8.0,Calm,Calm,-,N/A,,Partly Cloudy,0,2013-10-05 05:15:00
1:35 AM,66.2,64.4,94,30.05,9.0,Calm,Calm,-,N/A,,Partly Cloudy,0,2013-10-05 05:35:00
1:55 AM,66.2,64.4,94,30.06,9.0,Calm,Calm,-,N/A,,Scattered Clouds,0,2013-10-05 05:55:00
2:15 AM,66.2,64.4,94,30.05,3.0,East,3.5,-,N/A,,Mostly Cloudy,100,2013-10-05 06:15:00
2:35 AM,66.2,64.4,94,30.05,7.0,Calm,Calm,-,N/A,,Scattered Clouds,0,2013-10-05 06:35:00
2:55 AM,66.2,64.4,94,30.05,4.0,Calm,Calm,-,N/A,,Clear,0,2013-10-05 06:55:00
3:15 AM,64.4,64.4,100,30.05,3.0,Calm,Calm,-,N/A,,Clear,0,2013-10-05 07:15:00
3:35 AM,64.4,64.4,100,30.05,1.2,Calm,Calm,-,N/A,,Clear,0,2013-10-05 07:35:00
3:55 AM,64.4,64.4,100,30.05,0.8,Calm,Calm,-,N/A,,Unknown,0,2013-10-05 07:55:00
4:15 AM,62.6,62.6,100,30.05,0.5,Calm,Calm,-,N/A,,Unknown,0,2013-10-05 08:15:00
4:35 AM,62.6,62.6,100,30.06,0.8,Calm,Calm,-,N/A,,Unknown,0,2013-10-05 08:35:00
4:55 AM,62.6,62.6,100,30.06,0.5,Calm,Calm,-,N/A,,Mostly Cloudy,0,2013-10-05 08:55:00
5:15 AM,62.6,62.6,100,30.06,0.5,Calm,Calm,-,N/A,,Mostly Cloudy,0,2013-10-05 09:15:00
5:35 AM,62.6,62.6,100,30.07,2.0,Calm,Calm,-,N/A,,Mostly Cloudy,0,2013-10-05 09:35:00
5:55 AM,62.6,62.6,100,30.08,1.8,Calm,Calm,-,N/A,,Scattered Clouds,0,2013-10-05 09:55:00
6:15 AM,62.6,62.6,100,30.08,3.0,Calm,Calm,-,N/A,,Clear,0,2013-10-05 10:15:00
6:35 AM,62.6,62.6,100,30.08,1.2,Calm,Calm,-,N/A,,Clear,0,2013-10-05 10:35:00
6:55 AM,62.6,62.6,100,30.08,0.2,Calm,Calm,-,N/A,,Unknown,0,2013-10-05 10:55:00
7:15 AM,59.0,59.0,100,30.08,0.2,Calm,Calm,-,N/A,,Unknown,0,2013-10-05 11:15:00
7:35 AM,60.8,60.8,100,30.09,0.2,Calm,Calm,-,N/A,,Unknown,0,2013-10-05 11:35:00
7:55 AM,62.6,62.6,100,30.09,1.8,Calm,Calm,-,N/A,,Clear,0,2013-10-05 11:55:00
8:15 AM,62.6,62.6,100,30.10,3.0,Calm,Calm,-,N/A,,Clear,0,2013-10-05 12:15:00
8:35 AM,64.4,64.4,100,30.10,3.0,Calm,Calm,-,N/A,,Clear,0,2013-10-05 12:35:00
8:55 AM,66.2,64.4,94,30.11,6.0,West,3.5,-,N/A,,Clear,280,2013-10-05 12:55:00
9:15 AM,69.8,64.4,83,30.11,10.0,NW,3.5,-,N/A,,Clear,310,2013-10-05 13:15:00
9:35 AM,71.6,64.4,78,30.11,10.0,Calm,Calm,-,N/A,,Clear,0,2013-10-05 13:35:00
9:55 AM,73.4,66.2,78,30.11,10.0,Calm,Calm,-,N/A,,Clear,0,2013-10-05 13:55:00
10:15 AM,73.4,66.2,78,30.11,10.0,NW,3.5,-,N/A,,Clear,310,2013-10-05 14:15:00
10:35 AM,75.2,66.2,73,30.11,10.0,NE,3.5,-,N/A,,Clear,40,2013-10-05 14:35:00
10:55 AM,75.2,66.2,73,30.11,10.0,NNE,4.6,-,N/A,,Clear,20,2013-10-05 14:55:00
11:15 AM,77.0,64.4,65,30.10,10.0,Calm,Calm,-,N/A,,Clear,0,2013-10-05 15:15:00
11:35 AM,77.0,66.2,69,30.10,10.0,West,3.5,-,N/A,,Clear,280,2013-10-05 15:35:00
11:55 AM,78.8,66.2,65,30.09,10.0,ESE,3.5,-,N/A,,Partly Cloudy,120,2013-10-05 15:55:00
12:15 PM,80.6,66.2,61,30.09,10.0,WSW,3.5,-,N/A,,Clear,240,2013-10-05 16:15:00
12:35 PM,80.6,64.4,58,30.08,10.0,Calm,Calm,-,N/A,,Clear,0,2013-10-05 16:35:00
12:55 PM,80.6,64.4,58,30.07,9.0,East,3.5,-,N/A,,Clear,100,2013-10-05 16:55:00
1:15 PM,82.4,64.4,54,30.06,10.0,Calm,Calm,-,N/A,,Clear,0,2013-10-05 17:15:00
1:35 PM,82.4,64.4,54,30.05,10.0,South,3.5,-,N/A,,Clear,180,2013-10-05 17:35:00
1:55 PM,82.4,64.4,54,30.05,9.0,Calm,Calm,-,N/A,,Clear,0,2013-10-05 17:55:00
2:15 PM,82.4,64.4,54,30.04,10.0,Calm,Calm,-,N/A,,Scattered Clouds,0,2013-10-05 18:15:00
2:35 PM,82.4,64.4,54,30.04,10.0,WNW,3.5,-,N/A,,Mostly Cloudy,300,2013-10-05 18:35:00
2:55 PM,82.4,64.4,54,30.04,10.0,WNW,5.8,-,N/A,,Mostly Cloudy,290,2013-10-05 18:55:00
3:15 PM,84.2,64.4,51,30.05,8.0,South,5.8,-,N/A,,Overcast,190,2013-10-05 19:15:00
3:35 PM,84.2,64.4,51,30.04,8.0,South,5.8,-,N/A,,Scattered Clouds,190,2013-10-05 19:35:00
3:55 PM,84.2,64.4,51,30.03,10.0,South,3.5,-,N/A,,Clear,180,2013-10-05 19:55:00
4:15 PM,82.4,64.4,54,30.03,10.0,Calm,Calm,-,N/A,,Clear,0,2013-10-05 20:15:00
4:35 PM,84.2,64.4,51,30.03,10.0,SSE,5.8,-,N/A,,Scattered Clouds,150,2013-10-05 20:35:00
4:55 PM,84.2,64.4,51,30.03,10.0,South,4.6,-,N/A,,Overcast,180,2013-10-05 20:55:00
5:15 PM,82.4,64.4,54,30.02,10.0,Calm,Calm,-,N/A,,Scattered Clouds,0,2013-10-05 21:15:00
5:35 PM,82.4,64.4,54,30.03,10.0,SSE,3.5,-,N/A,,Clear,160,2013-10-05 21:35:00
5:55 PM,80.6,64.4,58,30.03,10.0,SSE,3.5,-,N/A,,Clear,150,2013-10-05 21:55:00
6:15 PM,78.8,66.2,65,30.03,10.0,Calm,Calm,-,N/A,,Clear,0,2013-10-05 22:15:00
6:35 PM,77.0,66.2,69,30.03,10.0,Calm,Calm,-,N/A,,Clear,0,2013-10-05 22:35:00
6:55 PM,75.2,66.2,73,30.04,10.0,Calm,Calm,-,N/A,,Scattered Clouds,0,2013-10-05 22:55:00
7:15 PM,75.2,66.2,73,30.03,10.0,Calm,Calm,-,N/A,,Scattered Clouds,0,2013-10-05 23:15:00
7:35 PM,73.4,66.2,78,30.04,10.0,Calm,Calm,-,N/A,,Unknown,0,2013-10-05 23:35:00
7:55 PM,71.6,66.2,83,30.05,10.0,Calm,Calm,-,N/A,,Mostly Cloudy,0,2013-10-05 23:55:00
8:15 PM,73.4,66.2,78,30.05,7.0,ESE,3.5,-,0.01,,Mostly Cloudy,120,2013-10-06 00:15:00
8:35 PM,73.4,68.0,83,30.06,10.0,East,3.5,-,0.01,,Mostly Cloudy,80,2013-10-06 00:35:00
8:55 PM,71.6,68.0,88,30.06,10.0,Calm,Calm,-,0.01,,Mostly Cloudy,0,2013-10-06 00:55:00
9:15 PM,71.6,68.0,88,30.06,9.0,ESE,4.6,-,N/A,,Mostly Cloudy,120,2013-10-06 01:15:00
9:35 PM,71.6,68.0,88,30.07,9.0,ESE,4.6,-,N/A,,Partly Cloudy,110,2013-10-06 01:35:00
9:55 PM,71.6,68.0,88,30.08,8.0,ESE,3.5,-,N/A,,Partly Cloudy,120,2013-10-06 01:55:00
10:15 PM,69.8,66.2,88,30.08,8.0,ESE,5.8,-,N/A,,Clear,120,2013-10-06 02:15:00
10:35 PM,69.8,66.2,88,30.08,7.0,Calm,Calm,-,N/A,,Clear,0,2013-10-06 02:35:00
10:55 PM,69.8,66.2,88,30.09,7.0,SSE,3.5,-,N/A,,Clear,150,2013-10-06 02:55:00
11:15 PM,68.0,66.2,94,30.09,7.0,ESE,4.6,-,N/A,,Mostly Cloudy,120,2013-10-06 03:15:00
11:35 PM,68.0,66.2,94,30.08,7.0,ESE,4.6,-,N/A,,Scattered Clouds,110,2013-10-06 03:35:00
11:55 PM,68.0,66.2,94,30.08,5.0,Calm,Calm,-,N/A,,Scattered Clouds,0,2013-10-06 03:55:00